User: anonymous   Login
Location: Pine Mountain Observatory
(43.7910°N, 120.9377°W)
Time: 08:40:52
(UTC-07:00)
Language:

APEX - Orbit

View from above orbital plane
View from above orbital plane
View from above satellite
View from above satellite

Ground track
Ground track

The orbit data is extracted from the following two-line orbital elements,

1 23191U 94046A   16269.10099300  .00006946  00000-0  23417-3 0  9990
2 23191  69.9256 111.6824 0625844 253.4506  99.7020 14.33312632 78507
Epoch (UTC): 25 September 2016 02:25:25
Eccentricity: 0.0625844
inclination: 69.9256°
perigee height: 332 km
apogee height: 1229 km
right ascension of ascending node: 111.6824°
argument of perigee: 253.4506°
revolutions per day: 14.33312632
mean anomaly at epoch: 99.7020°
orbit number at epoch: 7850

The dashed part of the orbit path shows where the satellite is in the earth's shadow,  

DLR